[[{"header":{"parameterUnit":"m.s-1","parameterCategory":1,"la1":30.2991,"la2":30.254,"lo1":-89.0895,"lo2":-89.0444,"dy":0.0017,"dx":0.0017,"nx":28,"ny":28,"refTime":"2024-08-03T03:00:00:Z","depth":0,"parameterNumber":2,"parameterNumberName":"U-component_of_WINDS"},"data":[0,0,0,0,0,0,0,0,0,0,0,0,0,0,0,0,0,0,0,0,0,0,0,0,0,0,0,0,0,0,0,0,0,0,0,0,0,0,0,0,0,0,0,0,0,0,0,0,0,0,0,0,0,0,0,0,0,0,3.5308,3.531,0,3.5503,3.5505,3.5507,3.5528,3.5526,3.5524,3.5522,3.5722,3.5729,3.5737,0,0,0,0,0,0,0,0,0,0,0,0,0,3.4954,3.496,3.5307,3.531,3.5312,3.5502,3.5505,3.5508,3.5528,3.5526,3.5523,3.5521,3.572,3.5729,3.5737,0,0,0,0,0,0,0,0,0,0,0,0,0,3.5124,3.4963,3.5307,3.5345,3.5351,3.5502,3.5505,3.5508,3.5529,3.5526,3.5523,3.552,3.5717,3.5728,3.5738,3.5864,0,0,3.5771,3.5776,0,0,0,0,0,0,0,0,3.5114,3.5137,3.5337,3.5343,3.5349,3.5488,3.5454,3.5628,3.5529,3.5461,3.5522,3.5518,3.5647,3.5663,3.5706,3.5874,3.5882,3.5772,3.5779,3.5783,3.5786,0,0,0,0,0,0,0,3.5103,3.5129,3.5385,3.534,3.5348,3.5353,3.5374,3.5487,3.5568,3.5467,3.5469,3.5492,3.565,3.5696,3.5711,3.5885,3.5772,3.5782,3.5788,3.5792,3.6167,3.617,0,0,0,0,0,0,3.5084,3.5119,3.5378,3.539,3.5222,3.5362,3.5386,3.5446,3.5567,3.5583,3.5494,3.5492,3.5679,3.5699,3.5718,3.5874,3.5783,3.5793,3.58,3.6164,3.6168,3.6172,0,0,0,0,0,0,3.5076,3.5107,3.5371,3.5255,3.5289,3.5371,3.544,3.5452,3.5498,3.5588,3.5602,3.5526,3.5677,3.5703,3.5828,3.5881,3.5798,3.5808,3.6159,3.6165,3.617,3.6186,0,0,0,0,0,0,3.5066,3.5104,3.5152,3.5256,3.5295,3.5476,3.5443,3.5458,3.5517,3.5516,3.5622,3.5637,3.5677,3.5812,3.5839,3.5895,3.5816,3.6155,3.6162,3.6168,3.6181,3.6191,3.62,0,0,0,0,0,3.5053,3.5149,3.5154,3.5185,3.5357,3.5479,3.5502,3.5546,3.5521,3.557,3.5628,3.5633,3.5871,3.5824,3.5855,3.5915,3.6152,3.616,3.6167,3.6177,3.6189,3.6199,0,0,0,0,0,0,3.5048,3.5163,3.517,3.5303,3.5381,3.5483,3.5546,3.5558,3.5645,3.5641,3.5693,3.5717,3.5839,3.589,3.5836,3.6044,3.6009,3.6023,3.6006,3.6018,3.6027,3.6012,3.5825,0,0,0,0,0,3.5063,3.5152,3.5248,3.5355,3.5394,3.5464,3.5518,3.5546,3.5629,3.5663,3.573,3.5811,3.5904,3.5964,3.6055,3.6189,3.6213,3.6245,3.6255,3.6262,3.6273,3.6348,3.6364,3.6197,3.6197,3.6197,0,0,3.5093,3.5167,3.522,3.5356,3.542,3.5512,3.5491,3.5589,3.5657,3.5678,3.5799,3.5852,3.5946,3.6076,3.6136,3.6122,3.6325,3.6272,3.6277,3.6285,3.6358,3.6374,3.6388,3.6203,3.6202,3.6201,0,0,3.5195,3.526,3.5357,3.5422,3.5519,3.5565,3.5588,3.5689,3.5724,3.5847,3.5865,3.5947,3.6107,3.6173,3.6228,3.6357,3.6365,3.6385,3.6433,3.6506,3.6519,3.6531,3.6577,3.6593,3.6396,3.6396,3.6397,0,3.5221,3.5359,3.5405,3.5503,3.5562,3.5585,3.5684,3.5745,3.5867,3.5907,3.5889,3.609,3.6155,3.6301,3.6333,3.6377,3.6405,3.6372,3.6513,3.6526,3.6538,3.6582,3.6599,3.6398,3.6398,3.6398,3.6398,0,3.5385,3.5481,3.5548,3.5665,3.5733,3.583,3.5891,3.5954,3.5976,3.6024,3.615,3.6229,3.6336,3.6373,3.6396,3.6523,3.6511,3.6503,3.6469,3.6554,3.6597,3.6614,3.6401,3.64,3.64,3.6399,0,0,3.5488,3.5631,3.5655,3.5708,3.5818,3.5893,3.5993,3.6098,3.615,3.6234,3.6319,3.6454,3.6447,3.6509,3.654,3.6604,3.6701,3.6588,3.6591,3.6605,3.6846,3.6851,3.6869,3.6708,3.6711,3.6714,3.6838,0,3.5602,3.5779,3.5824,3.5974,3.6064,3.6088,3.6174,3.6251,3.6299,3.6383,3.6436,3.653,3.6515,3.6552,3.6617,3.6675,3.675,3.6667,3.6786,3.679,3.6761,3.6892,3.6897,3.701,3.6855,3.6858,3.686,0,3.5759,3.5846,3.6005,3.6104,3.6143,3.622,3.632,3.64,3.6488,3.6519,3.6588,3.6613,3.6718,3.668,3.6825,3.6768,3.682,3.6856,3.6862,3.6874,3.6829,3.6906,3.7047,3.7064,3.6886,3.6884,3.6882,0,3.5817,3.5974,3.609,3.6136,3.6254,3.6308,3.636,3.6445,3.6506,3.6594,3.6634,3.6733,3.6787,3.6863,3.6915,3.6882,3.7056,3.7022,3.7084,3.7083,3.7118,3.7115,3.7269,3.7153,3.7153,3.7153,3.7152,0,3.5939,3.6035,3.6118,3.6189,3.6298,3.635,3.6456,3.6509,3.6586,3.6668,3.6695,3.6772,3.6835,3.6921,3.6962,3.7076,3.7101,3.7128,3.7138,3.7125,3.7122,3.7159,3.7152,3.7157,3.7156,3.7156,3.7155,0,3.6021,3.6081,3.6209,3.6311,3.6339,3.6415,3.6503,3.6573,3.6622,3.6726,3.6753,3.6831,3.6933,3.6992,3.7121,3.7149,3.7275,3.7282,3.7245,3.7249,3.7308,3.7301,3.749,3.7517,3.7384,3.7386,3.7387,0,3.6095,3.6169,3.628,3.6337,3.639,3.6481,3.6543,3.6598,3.6661,3.6768,3.6826,3.693,3.7016,3.7178,3.7246,3.7345,3.7354,3.7413,3.7369,3.7354,3.7354,3.7348,3.7356,3.742,3.7421,3.7422,3.7423,0,3.6218,3.6244,3.6332,3.6432,3.6505,3.6585,3.6666,3.6711,3.6779,3.6849,3.6954,3.7021,3.7153,3.7255,3.736,3.7415,3.7431,3.7437,3.7456,3.7444,3.7419,3.7433,3.7265,3.7432,3.7431,3.743,3.743,3.7429,3.6298,3.6366,3.6454,3.6552,3.6618,3.6693,3.6764,3.6823,3.6911,3.7022,3.7049,3.716,3.7248,3.739,3.7447,3.7535,3.7524,3.7553,3.756,3.7566,3.7567,3.7406,3.7554,3.7554,3.7554,3.7554,3.7553,0,3.6423,3.6481,3.6571,3.6682,3.6759,3.6768,3.6857,3.6921,3.7018,3.7098,3.7182,3.7303,3.7404,3.748,3.7583,3.7638,3.7648,3.7664,3.766,3.7672,3.7571,3.7543,3.7654,3.7654,3.7654,3.7654,3.7654,3.7654,3.6496,3.6611,3.6648,3.6797,3.6855,3.6963,3.7013,3.7082,3.7147,3.7281,3.7364,3.7413,3.7493,3.7602,3.7695,3.7715,3.7751,3.7765,3.7786,3.769,3.7679,3.7668,3.7643,3.7773,3.7773,3.788,3.7881,3.7882]},{"header":{"parameterUnit":"m.s-1","parameterCategory":1,"la1":30.2991,"la2":30.254,"lo1":-89.0895,"lo2":-89.0444,"dy":0.0017,"dx":0.0017,"nx":28,"ny":28,"refTime":"2024-08-03T03:00:00:Z","depth":0,"parameterNumber":3,"parameterNumberName":"V-component_of_WINDS"},"data":[0,0,0,0,0,0,0,0,0,0,0,0,0,0,0,0,0,0,0,0,0,0,0,0,0,0,0,0,0,0,0,0,0,0,0,0,0,0,0,0,0,0,0,0,0,0,0,0,0,0,0,0,0,0,0,0,0,0,2.018,2.0182,0,2.0337,2.0338,2.034,2.0346,2.0344,2.0342,2.034,2.0503,2.0509,2.0515,0,0,0,0,0,0,0,0,0,0,0,0,0,1.9888,1.9893,2.018,2.0182,2.0184,2.0336,2.0338,2.0341,2.0346,2.0344,2.0341,2.0339,2.0501,2.0509,2.0516,0,0,0,0,0,0,0,0,0,0,0,0,0,2.0027,1.9895,2.0179,2.0205,2.0209,2.0336,2.0338,2.0341,2.0347,2.0344,2.0341,2.0338,2.0499,2.0508,2.0517,2.063,0,0,2.0545,2.0549,0,0,0,0,0,0,0,0,2.0019,2.0037,2.0199,2.0203,2.0208,2.0319,2.0295,2.0438,2.0347,2.0294,2.034,2.0337,2.0444,2.0458,2.0494,2.0638,2.0645,2.0546,2.0551,2.0555,2.0558,0,0,0,0,0,0,0,2.0009,2.0031,2.0242,2.0201,2.0207,2.0209,2.0226,2.0322,2.0383,2.0299,2.0299,2.0318,2.0446,2.0485,2.0497,2.0647,2.0545,2.0554,2.0559,2.0563,2.0894,2.0897,0,0,0,0,0,0,1.9994,2.0023,2.0237,2.0247,2.0104,2.0217,2.0235,2.0286,2.0382,2.0394,2.032,2.0317,2.047,2.0487,2.0503,2.0643,2.0555,2.0564,2.0569,2.089,2.0894,2.0898,0,0,0,0,0,0,1.9988,2.0013,2.0231,2.0135,2.0163,2.0225,2.0282,2.0291,2.0329,2.0398,2.041,2.0348,2.0469,2.049,2.0599,2.0649,2.0568,2.0576,2.0887,2.0892,2.0896,2.0924,0,0,0,0,0,0,1.9979,2.0011,2.0054,2.0136,2.0168,2.0323,2.0285,2.0296,2.0345,2.0343,2.0428,2.0439,2.0468,2.0585,2.0608,2.066,2.0583,2.0882,2.0889,2.0895,2.0919,2.0929,2.0938,0,0,0,0,0,1.9969,2.0056,2.0056,2.0082,2.0223,2.0326,2.0344,2.0375,2.0348,2.0393,2.0438,2.0436,2.0639,2.0596,2.0622,2.0678,2.0879,2.0887,2.0894,2.0915,2.0927,2.0938,0,0,0,0,0,0,1.998,2.0067,2.0068,2.0184,2.0247,2.0326,2.0383,2.0387,2.046,2.0455,2.0492,2.0511,2.0619,2.0659,2.0609,2.0793,2.0756,2.0769,2.0763,2.0776,2.0785,2.0774,2.0591,0,0,0,0,0,1.9995,2.007,2.0143,2.0238,2.027,2.0321,2.0367,2.0385,2.0453,2.048,2.0532,2.0598,2.0677,2.0728,2.0805,2.0924,2.0943,2.0975,2.0985,2.0992,2.1004,2.1071,2.1086,2.0922,2.0922,2.0922,0,0,2.0029,2.0086,2.0131,2.0242,2.0293,2.0371,2.0344,2.0427,2.0486,2.0493,2.0599,2.0639,2.0715,2.083,2.0883,2.0867,2.1053,2.1002,2.1007,2.1015,2.108,2.1096,2.111,2.0927,2.0926,2.0926,0,0,2.013,2.018,2.0265,2.0317,2.0394,2.0428,2.0448,2.0527,2.0554,2.066,2.0667,2.0738,2.0872,2.0926,2.0972,2.1093,2.1095,2.1117,2.1168,2.1233,2.1246,2.1258,2.1303,2.1318,2.1127,2.1128,2.1128,0,2.0162,2.028,2.0309,2.0393,2.0442,2.045,2.0538,2.0587,2.0685,2.0719,2.0699,2.0869,2.092,2.1048,2.1078,2.1114,2.1139,2.1108,2.1242,2.1254,2.1265,2.1308,2.1325,2.113,2.1129,2.1129,2.1129,0,2.0316,2.0397,2.0457,2.0552,2.0607,2.0692,2.0736,2.0788,2.0802,2.0837,2.0946,2.1008,2.1098,2.1129,2.1143,2.1259,2.1247,2.1234,2.1198,2.1282,2.1324,2.134,2.1133,2.1132,2.1131,2.1131,0,0,2.043,2.0539,2.0561,2.0604,2.069,2.0754,2.0839,2.0926,2.0971,2.1038,2.1113,2.1226,2.1214,2.1265,2.1285,2.1342,2.1436,2.1323,2.1325,2.1343,2.157,2.1581,2.16,2.1437,2.1441,2.1443,2.1564,0,2.0542,2.0694,2.0723,2.0856,2.0932,2.0941,2.1016,2.1077,2.1112,2.1183,2.1222,2.1303,2.128,2.1312,2.1368,2.1413,2.1483,2.1404,2.1508,2.1512,2.1491,2.1621,2.1633,2.1744,2.1581,2.1583,2.1585,0,2.0693,2.0764,2.0904,2.098,2.1013,2.108,2.1162,2.1229,2.1299,2.132,2.1377,2.1391,2.1482,2.144,2.1566,2.1512,2.1556,2.1584,2.1589,2.1602,2.1555,2.1639,2.178,2.1798,2.1611,2.1609,2.1607,0,2.0764,2.0894,2.0995,2.1032,2.1122,2.1169,2.121,2.1276,2.1327,2.1399,2.1432,2.1513,2.1558,2.1621,2.1657,2.1623,2.1781,2.1742,2.1803,2.1802,2.1838,2.1835,2.199,2.1863,2.1862,2.1862,2.1862,0,2.0887,2.0973,2.1028,2.1091,2.1188,2.122,2.1315,2.1355,2.1414,2.1485,2.1497,2.1564,2.1606,2.1679,2.1707,2.1808,2.1828,2.1849,2.1856,2.1849,2.1847,2.188,2.1874,2.1867,2.1866,2.1865,2.1864,0,2.0983,2.1023,2.1135,2.1211,2.1232,2.1301,2.1367,2.1428,2.1463,2.1553,2.1576,2.1631,2.1718,2.1759,2.1866,2.1885,2.2,2.2001,2.1976,2.1979,2.2039,2.2033,2.2222,2.2249,2.2102,2.2103,2.2104,0,2.106,2.1126,2.121,2.1258,2.1299,2.1376,2.1427,2.1462,2.1515,2.1599,2.1651,2.1738,2.1809,2.1947,2.1997,2.2079,2.2083,2.2144,2.2096,2.2087,2.2087,2.2083,2.209,2.2153,2.2154,2.2155,2.2156,0,2.1192,2.1209,2.1282,2.1363,2.1423,2.1489,2.1553,2.1591,2.1636,2.1695,2.1783,2.1839,2.1948,2.2034,2.212,2.2162,2.2168,2.2171,2.219,2.2184,2.2168,2.218,2.2002,2.2167,2.2166,2.2165,2.2164,2.2164,2.1283,2.1342,2.1411,2.1492,2.1544,2.1603,2.1665,2.1707,2.1781,2.1872,2.1888,2.1982,2.2051,2.2166,2.2211,2.2286,2.2272,2.2299,2.2306,2.2313,2.2317,2.2154,2.2301,2.2301,2.2301,2.2301,2.23,0,2.1417,2.1461,2.1536,2.1625,2.1689,2.1687,2.1758,2.1812,2.1894,2.1957,2.2027,2.2129,2.2213,2.2269,2.2354,2.2403,2.2408,2.2425,2.2423,2.2433,2.2323,2.2299,2.242,2.2419,2.2419,2.2419,2.2419,2.2419,2.1495,2.1596,2.1621,2.1749,2.1792,2.1884,2.1925,2.198,2.2031,2.2144,2.2213,2.2249,2.231,2.24,2.2477,2.2491,2.2523,2.254,2.2555,2.2452,2.244,2.2428,2.2406,2.2547,2.2547,2.2658,2.2659,2.266]}]]